Weather History for KPUC - March, 2013

Change the Weather History Date:

Tuesday, March 12, 2013

  Actual Average Record
Temperature  
Mean Temperature 48 °F -  
Max Temperature 60 °F 49 °F 70 °F (1989)
Min Temperature 37 °F 26 °F 14 °F (2006)
Degree Days  
Heating Degree Days 17    
Moisture  
Dew Point 26 °F    
Average Humidity 47    
Maximum Humidity 67    
Minimum Humidity 23    
Precipitation  
Precipitation 0.00 in - - ()
Sea Level Pressure  
Sea Level Pressure 30.23 in    
Wind  
Wind Speed 5 mph (North)    
Max Wind Speed 12 mph    
Max Gust Speed 18 mph    
Visibility 10 miles    
Events      
Averages and records for this station are not official NWS values.
T = Trace of Precipitation, MM = Missing Value Source: NWS Daily Summary

Daily Weather History Graph

Daily Weather History Graph

Search for Another Location

Airport or City:

Trip Planner

Search our weather history database for the weather conditions in past years. The results will help you decide how hot, cold, wet, or windy it might be!

Date:

Astronomy

Mar. 12, 2013 Rise Set
Actual Time 7:38 AM MDT 7:27 PM MDT
Civil Twilight 7:11 AM MDT 7:54 PM MDT
Nautical Twilight 6:40 AM MDT 8:25 PM MDT
Astronomical Twilight 6:09 AM MDT 8:56 PM MDT
Moon 7:47 AM MDT (3/12) 8:45 PM MDT (3/12)
Length of Visible Light 12h 42m
Length of Day
11h 48m
New Moon, 1% of the Moon is Illuminated
Mar 12
New Moon
Mar 19
First Quarter
Mar 27
Full
Apr 2
Last Quarter
Apr 10
New

Hourly Weather History & Observations

Time (MDT) Temp. Windchill Dew Point Humidity Pressure Visibility Wind Dir Wind Speed Gust Speed Precip Events Conditions
12:53 AM 39.9 °F 33.9 °F 26.1 °F 58% 30.18 in 10.0 mi NNE 9.2 mph - N/A   Overcast
1:53 AM 39.0 °F - 27.0 °F 62% 30.17 in 10.0 mi Calm Calm - N/A   Overcast
2:53 AM 39.0 °F - 27.0 °F 62% 30.18 in 10.0 mi Calm Calm - N/A   Overcast
3:53 AM 41.0 °F - 26.1 °F 55% 30.17 in 10.0 mi Calm Calm - N/A   Overcast
4:53 AM 43.0 °F - 26.1 °F 51% 30.16 in 10.0 mi Calm Calm - N/A   Overcast
5:53 AM 37.0 °F 34.5 °F 27.0 °F 67% 30.21 in 10.0 mi ENE 3.5 mph - N/A   Mostly Cloudy
6:53 AM 37.9 °F 33.5 °F 27.0 °F 65% 30.23 in 10.0 mi North 5.8 mph - N/A   Mostly Cloudy
7:53 AM 39.9 °F 37.8 °F 27.0 °F 60% 30.25 in 10.0 mi North 3.5 mph - N/A   Mostly Cloudy
8:53 AM 42.1 °F - 28.0 °F 58% 30.27 in 10.0 mi Calm Calm - N/A   Clear
9:53 AM 46.9 °F - 28.0 °F 48% 30.27 in 10.0 mi Calm Calm - N/A   Partly Cloudy
10:53 AM 48.9 °F - 26.1 °F 41% 30.27 in 10.0 mi Calm Calm - N/A   Clear
11:53 AM 50.0 °F - 26.1 °F 39% 30.26 in 10.0 mi Calm Calm - N/A   Partly Cloudy
12:53 PM 53.1 °F - 24.1 °F 32% 30.25 in 10.0 mi Variable 3.5 mph - N/A   Clear
1:53 PM 57.0 °F - 26.1 °F 30% 30.23 in 10.0 mi West 9.2 mph - N/A   Scattered Clouds
2:53 PM 59.0 °F - 21.0 °F 23% 30.20 in 10.0 mi NNE 10.4 mph - N/A   Clear
3:53 PM 57.0 °F - 23.0 °F 27% 30.18 in 10.0 mi NNW 9.2 mph - N/A   Clear
4:53 PM 55.9 °F - 23.0 °F 28% 30.17 in 10.0 mi NNW 10.4 mph - N/A   Clear
5:53 PM 55.0 °F - 25.0 °F 31% 30.21 in 10.0 mi WNW 8.1 mph 18.4 mph N/A   Clear
6:53 PM 52.0 °F - 26.1 °F 37% 30.23 in 10.0 mi NW 10.4 mph - N/A   Clear
7:53 PM 48.9 °F - 26.1 °F 41% 30.26 in 10.0 mi NNW 11.5 mph - N/A   Clear
8:53 PM 46.9 °F - 26.1 °F 44% 30.26 in 10.0 mi North 9.2 mph - N/A   Clear
9:53 PM 44.1 °F 39.5 °F 26.1 °F 49% 30.28 in 10.0 mi NNW 8.1 mph - N/A   Clear
10:53 PM 39.0 °F 32.3 °F 26.1 °F 60% 30.32 in 10.0 mi North 10.4 mph - N/A   Clear
11:53 PM 39.9 °F 32.9 °F 26.1 °F 58% 30.30 in 10.0 mi NNE 11.5 mph - N/A   Clear